Location: Prairie Siding
(42.3475°N, 82.3249°W)
Time: 22:29:50
(UTC-04:00)

N. Korean satellite - Visible Passes

Search period start: 19 September 2018 00:00
Search period end: 29 September 2018 00:00
Orbit: 458 x 511 km, 97.2° (Epoch: 19 September)

Date Brightness Start Highest point End Pass type
(mag) Time Alt. Az. Time Alt. Az. Time Alt. Az.
22 Sep 10.0 20:08:16 10° SW 20:10:12 14° W 20:12:09 10° WNW visible
25 Sep 10.6 06:45:55 10° ENE 06:47:13 11° E 06:48:29 10° ESE visible
26 Sep 9.9 20:04:00 10° SW 20:06:14 16° W 20:08:29 10° NW visible
